Location: Unspecified
(40.8819°N, 0.0000°E)
Time: 17:27:36
(UTC+00:00)

PCSat - Pass Details

Date: 16 April 2024
Orbit: 783 x 792 km, 67.1° (Epoch: 22 May)

Event Time Altitude Azimuth Distance (km) Brightness Sun altitude
Rises 20:30:38 0° 214° (SW) 3,262 12.8 -19.6°
Reaches altitude 10° 20:33:03 10° 217° (SW) 2,339 12.0 -20.0°
Maximum altitude 20:38:23 69° 301° (WNW) 843 9.8 -20.8°
Drops below altitude 10° 20:43:47 10° 25° (NNE) 2,360 12.2 -21.6°
Sets 20:46:14 0° 28° (NNE) 3,294 12.9 -22.0°
